Weather History for KPHF - February, 2013

Change the Weather History Date:

Thursday, February 28, 2013

  Actual Average Record
Temperature  
Mean Temperature 46 °F -  
Max Temperature 51 °F 55 °F 77 °F (1954)
Min Temperature 41 °F 35 °F 21 °F (2015)
Degree Days  
Heating Degree Days 19    
Moisture  
Dew Point 32 °F    
Average Humidity 58    
Maximum Humidity 82    
Minimum Humidity 42    
Precipitation  
Precipitation 0.00 in - - ()
Sea Level Pressure  
Sea Level Pressure 29.69 in    
Wind  
Wind Speed 5 mph (West)    
Max Wind Speed 13 mph    
Max Gust Speed 23 mph    
Visibility 10 miles    
Events      
Averages and records for this station are not official NWS values.
T = Trace of Precipitation, MM = Missing Value Source: NWS Daily Summary

Daily Weather History Graph

Daily Weather History Graph

Search for Another Location

Airport or City:

Trip Planner

Search our weather history database for the weather conditions in past years. The results will help you decide how hot, cold, wet, or windy it might be!

Date:

Astronomy

Feb. 28, 2013 Rise Set
Actual Time 6:38 AM EST 5:59 PM EST
Civil Twilight 6:11 AM EST 6:25 PM EST
Nautical Twilight 5:41 AM EST 6:55 PM EST
Astronomical Twilight 5:11 AM EST 7:25 PM EST
Moon 9:17 PM EST 7:51 AM EST
Length of Visible Light 12h 13m
Length of Day
11h 21m
Waning Gibbous, 91% of the Moon is Illuminated
Feb 28
Waning Gibbous
Mar 4
Last Quarter
Mar 11
New
Mar 19
First Quarter
Mar 27
Full

Hourly Weather History & Observations

Time (EST) Temp. Windchill Dew Point Humidity Pressure Visibility Wind Dir Wind Speed Gust Speed Precip Events Conditions
12:54 AM 42.1 °F - 30.9 °F 65% 29.67 in 10.0 mi Calm Calm - N/A   Partly Cloudy
1:54 AM 41.0 °F - 36.0 °F 82% 29.66 in 10.0 mi Calm Calm - N/A   Overcast
2:54 AM 46.9 °F - 37.0 °F 68% 29.66 in 10.0 mi WNW 4.6 mph - N/A   Overcast
3:54 AM 45.0 °F - 37.9 °F 76% 29.64 in 10.0 mi Calm Calm - N/A   Overcast
4:54 AM 46.0 °F 44.8 °F 36.0 °F 68% 29.66 in 10.0 mi SW 3.5 mph - N/A   Overcast
5:54 AM 46.9 °F - 36.0 °F 66% 29.67 in 10.0 mi WSW 6.9 mph - N/A   Overcast
6:54 AM 46.0 °F 41.9 °F 35.1 °F 66% 29.68 in 10.0 mi WSW 8.1 mph - N/A   Mostly Cloudy
7:54 AM 46.9 °F - 34.0 °F 61% 29.68 in 10.0 mi West 11.5 mph - N/A   Mostly Cloudy
8:54 AM 48.9 °F - 35.1 °F 59% 29.69 in 10.0 mi NW 12.7 mph - N/A   Clear
9:33 AM 50.0 °F - 35.6 °F 58% 29.70 in 10.0 mi North 8.1 mph - N/A   Mostly Cloudy
9:54 AM 51.1 °F - 36.0 °F 56% 29.69 in 10.0 mi NW 8.1 mph - N/A   Overcast
10:18 AM 50.0 °F - 35.6 °F 58% 29.69 in 10.0 mi West 9.2 mph - N/A   Overcast
10:54 AM 51.1 °F - 35.1 °F 54% 29.70 in 10.0 mi WSW 4.6 mph - N/A   Overcast
11:54 AM 51.1 °F - 30.0 °F 44% 29.69 in 10.0 mi West 10.4 mph - N/A   Overcast
12:54 PM 50.0 °F - 28.9 °F 44% 29.68 in 10.0 mi NW 9.2 mph - N/A   Overcast
1:54 PM - - - N/A% 29.67 in - East 8.1 mph - N/A   Unknown
2:16 PM 46.4 °F - 35.6 °F 66% 29.66 in 2.0 mi North - - N/A   Haze
2:26 PM 46.4 °F - 37.4 °F 71% 29.66 in 10.0 mi North - - N/A   Overcast
2:54 PM 46.0 °F - 36.0 °F 68% 29.67 in 10.0 mi North - - N/A   Overcast
3:54 PM 48.9 °F - 30.9 °F 50% 29.67 in 10.0 mi Variable 6.9 mph - N/A   Overcast
4:54 PM 48.9 °F - 27.0 °F 43% 29.68 in 10.0 mi WNW 12.7 mph 23.0 mph N/A   Overcast
5:54 PM 48.0 °F - 26.1 °F 42% 29.70 in 10.0 mi West 10.4 mph - N/A   Partly Cloudy
6:54 PM 46.0 °F 41.9 °F 27.0 °F 47% 29.74 in 10.0 mi WNW 8.1 mph - N/A   Clear
7:54 PM 45.0 °F - 27.0 °F 49% 29.75 in 10.0 mi Calm Calm - N/A   Clear
8:54 PM 42.8 °F 40.1 °F 24.8 °F 49% 29.75 in 10.0 mi West 4.6 mph - N/A   Mostly Cloudy
9:54 PM 41.0 °F 36.4 °F 26.1 °F 55% 29.76 in 10.0 mi WSW 6.9 mph - N/A   Partly Cloudy
11:54 PM 41.0 °F 35.8 °F 25.0 °F 53% 29.77 in 10.0 mi West 8.1 mph - N/A   Clear